Home > Weather > Timișoara > Past weeks

Flag for Romania Past Weather in Timișoara, Romania — Yesterday and Last 2 Weeks

Now
84 °F

Passing clouds.


Feels Like: 86 °F
Forecast: 64 / 76 °F
Wind: 8 mph from Northwest

Location: Timisoara Airport

Current Time: Jun 27, 2016 at 4:18:23 PM

Latest Report: Jun 27, 2016 at 4:00 PM


Visibility: N/A

Pressure: 29.86 "Hg

Humidity: 51%

Dew Point: 64 °F

Location of TimișoaraLocation

Past Weather in Timișoara — Graph

°F

Timișoara Temperature Yesterday

Maximum temperature yesterday: 91 °F (at 5:00 PM)
Minimum temperature yesterday: 66 °F (at 11:00 PM)
Average temperature yesterday: 75 °F

High & Low Weather Summary for the Past Weeks

 TemperatureHumidityPressure
High93 °F (Jun 17, 3:30 PM)100% (Jun 12, 10:30 PM)30.18 "Hg (Jun 12, 10:30 PM)
Low54 °F (Jun 15, 6:00 AM)32% (Jun 17, 3:00 PM)29.47 "Hg (Jun 14, 4:30 AM)
Average74 °F78%29.91 "Hg
* Reported Jun 12 3:00 PM — Jun 27 3:00 PM, Timișoara, Weather by CustomWeather, © 2016

Note: Actual official high and low records may vary slightly from our data, if they occured in-between our weather recording intervals... More about our weather records

Advertising

Timișoara Weather History for the Previous 24 Hours

Scroll right to see more
 ConditionsComfort  
Time TempWeatherWind HumidityBarometerVisibility
3:00 PM
Mon, Jun 27
84 °FPassing clouds.8 mph48%29.89 "HgN/A
2:30 PM84 °FPassing clouds.9 mph51%29.89 "HgN/A
2:00 PM84 °FPassing clouds.8 mph51%29.89 "HgN/A
1:30 PM84 °FPassing clouds.10 mph51%29.92 "HgN/A
1:00 PM82 °FScattered clouds.5 mph62%29.92 "HgN/A
12:30 PM82 °FPassing clouds.2 mph70%29.92 "HgN/A
12:00 PM81 °FPassing clouds.6 mph70%29.92 "HgN/A
11:30 AM79 °FPassing clouds.7 mph74%29.92 "HgN/A
11:00 AM79 °FSunny.9 mph70%29.92 "Hg10 mi
10:30 AM77 °FPassing clouds.7 mph69%29.92 "HgN/A
10:00 AM73 °FPassing clouds.6 mph78%29.92 "HgN/A
9:30 AM73 °FPassing clouds.8 mph78%29.92 "HgN/A
9:00 AM72 °FPassing clouds.7 mph88%29.95 "HgN/A
8:30 AM72 °FPassing clouds.9 mph83%29.95 "HgN/A
8:00 AM70 °FPassing clouds.5 mph88%29.95 "HgN/A
7:30 AM68 °FPassing clouds.9 mph94%29.95 "HgN/A
7:00 AM66 °FPassing clouds.8 mph100%29.95 "HgN/A
6:30 AM66 °FPassing clouds.6 mph94%29.95 "HgN/A
6:00 AM66 °FPassing clouds.7 mph100%29.95 "Hg5 mi
5:30 AM66 °FFog.7 mph100%29.95 "Hg3 mi
5:00 AM66 °FClear.6 mph100%29.92 "Hg10 mi
4:30 AM66 °FClear.6 mph100%29.92 "Hg10 mi
4:00 AM66 °FClear.2 mph100%29.95 "Hg10 mi
3:30 AM66 °FClear.7 mph100%29.95 "Hg10 mi
3:00 AM66 °FClear.6 mph100%29.92 "Hg10 mi
2:30 AM68 °FClear.3 mph94%29.92 "Hg10 mi
2:00 AM66 °FPassing clouds.5 mph100%29.95 "HgN/A
1:30 AM66 °FPassing clouds.3 mph100%29.95 "HgN/A
1:00 AM66 °FPassing clouds.6 mph94%29.95 "HgN/A
12:30 AM66 °FClear.2 mph94%29.95 "Hg6 mi
12:00 AM64 °FClear.3 mph100%29.95 "Hg5 mi
11:30 PM
Sun, Jun 26
66 °FClear.5 mph94%29.92 "Hg5 mi
11:00 PM66 °FClear.6 mph94%29.92 "Hg10 mi
10:30 PM68 °FClear.2 mph94%29.92 "Hg10 mi
10:00 PM70 °FSunny.3 mph88%29.92 "Hg10 mi
9:30 PM68 °FPassing clouds.2 mph94%29.92 "HgN/A
9:00 PM70 °FPassing clouds.3 mph94%29.92 "HgN/A
8:30 PM68 °FPassing clouds.7 mph94%29.92 "HgN/A
8:00 PM68 °FScattered clouds.5 mph94%29.95 "HgN/A
7:30 PM68 °FThunderstorms. Scattered clouds.8 mph88%29.95 "HgN/A
7:00 PM68 °FThunderstorms. Scattered clouds.7 mph88%29.95 "HgN/A
6:30 PM68 °FThunderstorms. Broken clouds.15 mph83%29.95 "Hg4 mi
6:00 PM72 °FStrong thunderstorms. Broken clouds.14 mph94%29.92 "Hg4 mi
5:30 PM82 °FThunderstorms. Partly sunny.16 mph70%29.92 "Hg4 mi
5:00 PM91 °FThundershowers. Passing clouds.3 mph41%29.89 "HgN/A
4:30 PM90 °FPassing clouds.1 mph41%29.92 "HgN/A
4:00 PM88 °FPassing clouds.3 mph46%29.92 "HgN/A
Weather by CustomWeather, © 2016

See weather overviewHow to use our weather pages